Year,Month,Day,Hour,Minute,Value (Times are PST for temperature in C)
2015,02,21,00,00,2.10
2015,02,21,00,01,2.10
2015,02,21,00,02,2.10
2015,02,21,00,03,2.50
2015,02,21,00,04,2.80
2015,02,21,00,05,2.90
2015,02,21,00,06,3.00
2015,02,21,00,07,3.00
2015,02,21,00,08,3.20
2015,02,21,00,09,3.40
2015,02,21,00,10,3.50
2015,02,21,00,11,3.60
2015,02,21,00,12,3.60
2015,02,21,00,13,3.70
2015,02,21,00,14,3.70
2015,02,21,00,15,3.70
2015,02,21,00,16,3.70
2015,02,21,00,17,3.60
2015,02,21,00,18,3.50
2015,02,21,00,19,3.50
2015,02,21,00,20,3.40
2015,02,21,00,21,3.40
2015,02,21,00,22,3.30
2015,02,21,00,23,3.30
2015,02,21,00,24,3.30
2015,02,21,00,25,3.20
2015,02,21,00,26,3.20
2015,02,21,00,27,3.10
2015,02,21,00,28,3.10
2015,02,21,00,29,3.00
2015,02,21,00,30,3.00
2015,02,21,00,31,2.90
2015,02,21,00,32,2.90
2015,02,21,00,33,2.80
2015,02,21,00,34,2.80
2015,02,21,00,35,2.70
2015,02,21,00,36,2.70
2015,02,21,00,37,2.70
2015,02,21,00,38,2.70
2015,02,21,00,39,2.60
2015,02,21,00,40,2.60
2015,02,21,00,41,2.60
2015,02,21,00,42,2.60
2015,02,21,00,43,2.50
2015,02,21,00,44,2.50
2015,02,21,00,45,2.50
2015,02,21,00,46,2.50
2015,02,21,00,47,2.40
2015,02,21,00,48,2.40
2015,02,21,00,49,2.40
2015,02,21,00,50,2.30
2015,02,21,00,51,2.30
2015,02,21,00,52,2.30
2015,02,21,00,53,2.30
2015,02,21,00,54,2.20
2015,02,21,00,55,2.20
2015,02,21,00,56,2.20
2015,02,21,00,57,2.20
2015,02,21,00,58,2.20
2015,02,21,00,59,2.20
2015,02,21,01,00,2.20
2015,02,21,01,01,2.30
2015,02,21,01,02,2.30
2015,02,21,01,03,2.30
2015,02,21,01,04,2.30
2015,02,21,01,05,2.30
2015,02,21,01,06,2.20
2015,02,21,01,07,2.20
2015,02,21,01,08,2.20
2015,02,21,01,09,2.10
2015,02,21,01,10,2.10
2015,02,21,01,11,2.10
2015,02,21,01,12,2.10
2015,02,21,01,13,2.00
2015,02,21,01,14,2.00
2015,02,21,01,15,2.00
2015,02,21,01,16,1.90
2015,02,21,01,17,1.90
2015,02,21,01,18,1.90
2015,02,21,01,19,1.80
2015,02,21,01,20,1.80
2015,02,21,01,21,1.70
2015,02,21,01,22,1.70
2015,02,21,01,23,1.70
2015,02,21,01,24,1.70
2015,02,21,01,25,1.60
2015,02,21,01,26,1.60
2015,02,21,01,27,1.60
2015,02,21,01,28,1.60
2015,02,21,01,29,1.50
2015,02,21,01,30,1.50
2015,02,21,01,31,1.50
2015,02,21,01,32,1.50
2015,02,21,01,33,1.40
2015,02,21,01,34,1.40
2015,02,21,01,35,1.40
2015,02,21,01,36,1.40
2015,02,21,01,37,1.40
2015,02,21,01,38,1.40
2015,02,21,01,39,1.40
2015,02,21,01,40,1.40
2015,02,21,01,41,1.40
2015,02,21,01,42,1.40
2015,02,21,01,43,1.40
2015,02,21,01,44,1.40
2015,02,21,01,45,1.40
2015,02,21,01,46,1.40
2015,02,21,01,47,1.40
2015,02,21,01,48,1.30
2015,02,21,01,49,1.30
2015,02,21,01,50,1.30
2015,02,21,01,51,1.30
2015,02,21,01,52,1.20
2015,02,21,01,53,1.20
2015,02,21,01,54,1.20
2015,02,21,01,55,1.20
2015,02,21,01,56,1.20
2015,02,21,01,57,1.20
2015,02,21,01,58,1.20
2015,02,21,01,59,1.20
2015,02,21,02,00,1.20
2015,02,21,02,01,1.20
2015,02,21,02,02,1.20
2015,02,21,02,03,1.30
2015,02,21,02,04,1.30
2015,02,21,02,05,1.20
2015,02,21,02,06,1.20
2015,02,21,02,07,1.20
2015,02,21,02,08,1.20
2015,02,21,02,09,1.10
2015,02,21,02,10,1.10
2015,02,21,02,11,1.10
2015,02,21,02,12,1.10
2015,02,21,02,13,1.10
2015,02,21,02,14,1.10
2015,02,21,02,15,1.10
2015,02,21,02,16,1.10
2015,02,21,02,17,1.10
2015,02,21,02,18,1.10
2015,02,21,02,19,1.10
2015,02,21,02,20,1.10
2015,02,21,02,21,1.10
2015,02,21,02,22,1.10
2015,02,21,02,23,1.10
2015,02,21,02,24,1.20
2015,02,21,02,25,1.20
2015,02,21,02,26,1.20
2015,02,21,02,27,1.20
2015,02,21,02,28,1.20
2015,02,21,02,29,1.20
2015,02,21,02,30,1.20
2015,02,21,02,31,1.30
2015,02,21,02,32,1.30
2015,02,21,02,33,1.30
2015,02,21,02,34,1.30
2015,02,21,02,35,1.30
2015,02,21,02,36,1.30
2015,02,21,02,37,1.30
2015,02,21,02,38,1.30
2015,02,21,02,39,1.30
2015,02,21,02,40,1.30
2015,02,21,02,41,1.30
2015,02,21,02,42,1.40
2015,02,21,02,43,1.50
2015,02,21,02,44,1.50
2015,02,21,02,45,1.60
2015,02,21,02,46,1.60
2015,02,21,02,47,1.60
2015,02,21,02,48,1.60
2015,02,21,02,49,1.60
2015,02,21,02,50,1.70
2015,02,21,02,51,1.70
2015,02,21,02,52,1.80
2015,02,21,02,53,1.80
2015,02,21,02,54,1.80
2015,02,21,02,55,1.80
2015,02,21,02,56,1.70
2015,02,21,02,57,1.70
2015,02,21,02,58,1.70
2015,02,21,02,59,1.70
2015,02,21,03,00,1.70
2015,02,21,03,01,1.70
2015,02,21,03,02,1.70
2015,02,21,03,03,1.70
2015,02,21,03,04,1.70
2015,02,21,03,05,1.70
2015,02,21,03,06,1.70
2015,02,21,03,07,1.70
2015,02,21,03,08,1.70
2015,02,21,03,09,1.70
2015,02,21,03,10,1.70
2015,02,21,03,11,1.70
2015,02,21,03,12,1.70
2015,02,21,03,13,1.70
2015,02,21,03,14,1.70
2015,02,21,03,15,1.70
2015,02,21,03,16,1.70
2015,02,21,03,17,1.70
2015,02,21,03,18,1.70
2015,02,21,03,19,1.70
2015,02,21,03,20,1.60
2015,02,21,03,21,1.60
2015,02,21,03,22,1.60
2015,02,21,03,23,1.60
2015,02,21,03,24,1.60
2015,02,21,03,25,1.60
2015,02,21,03,26,1.70
2015,02,21,03,27,1.90
2015,02,21,03,28,2.00
2015,02,21,03,29,2.20
2015,02,21,03,30,2.20
2015,02,21,03,31,2.30
2015,02,21,03,32,2.30
2015,02,21,03,33,2.30
2015,02,21,03,34,2.30
2015,02,21,03,35,2.20
2015,02,21,03,36,2.20
2015,02,21,03,37,2.20
2015,02,21,03,38,2.20
2015,02,21,03,39,2.20
2015,02,21,03,40,2.20
2015,02,21,03,41,2.20
2015,02,21,03,42,2.20
2015,02,21,03,43,2.20
2015,02,21,03,44,2.10
2015,02,21,03,45,2.10
2015,02,21,03,46,2.10
2015,02,21,03,47,2.10
2015,02,21,03,48,2.10
2015,02,21,03,49,2.10
2015,02,21,03,50,2.10
2015,02,21,03,51,2.10
2015,02,21,03,52,2.10
2015,02,21,03,53,2.10
2015,02,21,03,54,2.00
2015,02,21,03,55,2.00
2015,02,21,03,56,2.00
2015,02,21,03,57,2.00
2015,02,21,03,58,1.90
2015,02,21,03,59,1.90
2015,02,21,04,00,1.90
2015,02,21,04,01,1.90
2015,02,21,04,02,1.90
2015,02,21,04,03,1.90
2015,02,21,04,04,1.90
2015,02,21,04,05,1.90
2015,02,21,04,06,1.90
2015,02,21,04,07,1.90
2015,02,21,04,08,1.80
2015,02,21,04,09,1.80
2015,02,21,04,10,1.80
2015,02,21,04,11,1.80
2015,02,21,04,12,1.80
2015,02,21,04,13,1.80
2015,02,21,04,14,1.70
2015,02,21,04,15,1.70
2015,02,21,04,16,1.70
2015,02,21,04,17,1.70
2015,02,21,04,18,1.70
2015,02,21,04,19,1.80
2015,02,21,04,20,1.80
2015,02,21,04,21,1.80
2015,02,21,04,22,1.80
2015,02,21,04,23,1.70
2015,02,21,04,24,1.70
2015,02,21,04,25,1.70
2015,02,21,04,26,1.80
2015,02,21,04,27,1.80
2015,02,21,04,28,1.80
2015,02,21,04,29,1.80
2015,02,21,04,30,1.70
2015,02,21,04,31,1.70
2015,02,21,04,32,1.70
2015,02,21,04,33,1.70
2015,02,21,04,34,1.80
2015,02,21,04,35,1.70
2015,02,21,04,36,1.70
2015,02,21,04,37,1.80
2015,02,21,04,38,1.80
2015,02,21,04,39,1.80
2015,02,21,04,40,1.80
2015,02,21,04,41,1.80
2015,02,21,04,42,1.70
2015,02,21,04,43,1.70
2015,02,21,04,44,1.70
2015,02,21,04,45,1.70
2015,02,21,04,46,1.70
2015,02,21,04,47,1.70
2015,02,21,04,48,1.60
2015,02,21,04,49,1.60
2015,02,21,04,50,1.60
2015,02,21,04,51,1.60
2015,02,21,04,52,1.50
2015,02,21,04,53,1.50
2015,02,21,04,54,1.50
2015,02,21,04,55,1.50
2015,02,21,04,56,1.50
2015,02,21,04,57,1.50
2015,02,21,04,58,1.40
2015,02,21,04,59,1.40
2015,02,21,05,00,1.40
2015,02,21,05,01,1.40
2015,02,21,05,02,1.30
2015,02,21,05,03,1.30
2015,02,21,05,04,1.30
2015,02,21,05,05,1.20
2015,02,21,05,06,1.20
2015,02,21,05,07,1.20
2015,02,21,05,08,1.20
2015,02,21,05,09,1.20
2015,02,21,05,10,1.20
2015,02,21,05,11,1.30
2015,02,21,05,12,1.30
2015,02,21,05,13,1.30
2015,02,21,05,14,1.30
2015,02,21,05,15,1.30
2015,02,21,05,16,1.30
2015,02,21,05,17,1.30
2015,02,21,05,18,1.30
2015,02,21,05,19,1.20
2015,02,21,05,20,1.20
2015,02,21,05,21,1.20
2015,02,21,05,22,1.20
2015,02,21,05,23,1.20
2015,02,21,05,24,1.20
2015,02,21,05,25,1.20
2015,02,21,05,26,1.10
2015,02,21,05,27,1.10
2015,02,21,05,28,1.10
2015,02,21,05,29,1.20
2015,02,21,05,30,1.20
2015,02,21,05,31,1.20
2015,02,21,05,32,1.20
2015,02,21,05,33,1.20
2015,02,21,05,34,1.20
2015,02,21,05,35,1.20
2015,02,21,05,36,1.20
2015,02,21,05,37,1.20
2015,02,21,05,38,1.10
2015,02,21,05,39,1.10
2015,02,21,05,40,1.10
2015,02,21,05,41,1.10
2015,02,21,05,42,1.10
2015,02,21,05,43,1.00
2015,02,21,05,44,1.00
2015,02,21,05,45,1.00
2015,02,21,05,46,0.90
2015,02,21,05,47,0.90
2015,02,21,05,48,0.90
2015,02,21,05,49,0.90
2015,02,21,05,50,0.90
2015,02,21,05,51,0.90
2015,02,21,05,52,0.90
2015,02,21,05,53,0.80
2015,02,21,05,54,0.80
2015,02,21,05,55,0.80
2015,02,21,05,56,0.80
2015,02,21,05,57,0.80
2015,02,21,05,58,0.80
2015,02,21,05,59,0.80
2015,02,21,06,00,0.80
2015,02,21,06,01,0.80
2015,02,21,06,02,0.80
2015,02,21,06,03,0.80
2015,02,21,06,04,0.70
2015,02,21,06,05,0.70
2015,02,21,06,06,0.70
2015,02,21,06,07,0.70
2015,02,21,06,08,0.70
2015,02,21,06,09,0.70
2015,02,21,06,10,0.70
2015,02,21,06,11,0.70
2015,02,21,06,12,0.70
2015,02,21,06,13,0.70
2015,02,21,06,14,0.70
2015,02,21,06,15,0.70
2015,02,21,06,16,0.70
2015,02,21,06,17,0.70
2015,02,21,06,18,0.60
2015,02,21,06,19,0.60
2015,02,21,06,20,0.60
2015,02,21,06,21,0.60
2015,02,21,06,22,0.60
2015,02,21,06,23,0.60
2015,02,21,06,24,0.60
2015,02,21,06,25,0.50
2015,02,21,06,26,0.50
2015,02,21,06,27,0.50
2015,02,21,06,28,0.50
2015,02,21,06,29,0.60
2015,02,21,06,30,0.60
2015,02,21,06,31,0.60
2015,02,21,06,32,0.60
2015,02,21,06,33,0.60
2015,02,21,06,34,0.60
2015,02,21,06,35,0.60
2015,02,21,06,36,0.60
2015,02,21,06,37,0.60
2015,02,21,06,38,0.60
2015,02,21,06,39,0.60
2015,02,21,06,40,0.60
2015,02,21,06,41,0.60
2015,02,21,06,42,0.70
2015,02,21,06,43,0.80
2015,02,21,06,44,0.80
2015,02,21,06,45,0.80
2015,02,21,06,46,0.80
2015,02,21,06,47,0.80
2015,02,21,06,48,0.80
2015,02,21,06,49,0.70
2015,02,21,06,50,0.70
2015,02,21,06,51,0.60
2015,02,21,06,52,0.60
2015,02,21,06,53,0.50
2015,02,21,06,54,0.50
2015,02,21,06,55,0.50
2015,02,21,06,56,0.50
2015,02,21,06,57,0.40
2015,02,21,06,58,0.40
2015,02,21,06,59,0.40
2015,02,21,07,00,0.40
2015,02,21,07,01,0.40
2015,02,21,07,02,0.40
2015,02,21,07,03,0.40
2015,02,21,07,04,0.40
2015,02,21,07,05,0.40
2015,02,21,07,06,0.40
2015,02,21,07,07,0.40
2015,02,21,07,08,0.40
2015,02,21,07,09,0.40
2015,02,21,07,10,0.30
2015,02,21,07,11,0.30
2015,02,21,07,12,0.30
2015,02,21,07,13,0.30
2015,02,21,07,14,0.30
2015,02,21,07,15,0.30
2015,02,21,07,16,0.30
2015,02,21,07,17,0.30
2015,02,21,07,18,0.40
2015,02,21,07,19,0.40
2015,02,21,07,20,0.40
2015,02,21,07,21,0.40
2015,02,21,07,22,0.50
2015,02,21,07,23,0.50
2015,02,21,07,24,0.50
2015,02,21,07,25,0.50
2015,02,21,07,26,0.50
2015,02,21,07,27,0.50
2015,02,21,07,28,0.50
2015,02,21,07,29,0.50
2015,02,21,07,30,0.50
2015,02,21,07,31,0.50
2015,02,21,07,32,0.50
2015,02,21,07,33,0.50
2015,02,21,07,34,0.60
2015,02,21,07,35,0.60
2015,02,21,07,36,0.50
2015,02,21,07,37,0.50
2015,02,21,07,38,0.40
2015,02,21,07,39,0.40
2015,02,21,07,40,0.40
2015,02,21,07,41,0.40
2015,02,21,07,42,0.40
2015,02,21,07,43,0.40
2015,02,21,07,44,0.30
2015,02,21,07,45,0.30
2015,02,21,07,46,0.30
2015,02,21,07,47,0.30
2015,02,21,07,48,0.30
2015,02,21,07,49,0.20
2015,02,21,07,50,0.20
2015,02,21,07,51,0.20
2015,02,21,07,52,0.20
2015,02,21,07,53,0.20
2015,02,21,07,54,0.10
2015,02,21,07,55,0.10
2015,02,21,07,56,0.00
2015,02,21,07,57,0.00
2015,02,21,07,58,0.00
2015,02,21,07,59,0.00
2015,02,21,08,00,0.10
2015,02,21,08,01,0.10
2015,02,21,08,02,0.10
2015,02,21,08,03,0.10
2015,02,21,08,04,0.20
2015,02,21,08,05,0.20
2015,02,21,08,06,0.20
2015,02,21,08,07,0.20
2015,02,21,08,08,0.30
2015,02,21,08,09,0.30
2015,02,21,08,10,0.30
2015,02,21,08,11,0.30
2015,02,21,08,12,0.30
2015,02,21,08,13,0.30
2015,02,21,08,14,0.30
2015,02,21,08,15,0.30
2015,02,21,08,16,0.40
2015,02,21,08,17,0.40
2015,02,21,08,18,0.40
2015,02,21,08,19,0.40
2015,02,21,08,20,0.40
2015,02,21,08,21,0.40
2015,02,21,08,22,0.40
2015,02,21,08,23,0.40
2015,02,21,08,24,0.40
2015,02,21,08,25,0.30
2015,02,21,08,26,0.30
2015,02,21,08,27,0.30
2015,02,21,08,28,0.30
2015,02,21,08,29,0.30
2015,02,21,08,30,0.30
2015,02,21,08,31,0.30
2015,02,21,08,32,0.40
2015,02,21,08,33,0.40
2015,02,21,08,34,0.40
2015,02,21,08,35,0.40
2015,02,21,08,36,0.40
2015,02,21,08,37,0.40
2015,02,21,08,38,0.50
2015,02,21,08,39,0.40
2015,02,21,08,40,0.40
2015,02,21,08,41,0.40
2015,02,21,08,42,0.30
2015,02,21,08,43,0.30
2015,02,21,08,44,0.30
2015,02,21,08,45,0.30
2015,02,21,08,46,0.30
2015,02,21,08,47,0.30
2015,02,21,08,48,0.30
2015,02,21,08,49,0.30
2015,02,21,08,50,0.30
2015,02,21,08,51,0.30
2015,02,21,08,52,0.30
2015,02,21,08,53,0.30
2015,02,21,08,54,0.30
2015,02,21,08,55,0.30
2015,02,21,08,56,0.30
2015,02,21,08,57,0.30
2015,02,21,08,58,0.30
2015,02,21,08,59,0.30
2015,02,21,09,00,0.30
2015,02,21,09,01,0.30
2015,02,21,09,02,0.30
2015,02,21,09,03,0.40
2015,02,21,09,04,0.40
2015,02,21,09,05,0.40
2015,02,21,09,06,0.40
2015,02,21,09,07,0.50
2015,02,21,09,08,0.50
2015,02,21,09,09,0.60
2015,02,21,09,10,0.60
2015,02,21,09,11,0.60
2015,02,21,09,12,0.70
2015,02,21,09,13,0.70
2015,02,21,09,14,0.70
2015,02,21,09,15,0.70
2015,02,21,09,16,0.70
2015,02,21,09,17,0.70
2015,02,21,09,18,0.60
2015,02,21,09,19,0.60
2015,02,21,09,20,0.60
2015,02,21,09,21,0.60
2015,02,21,09,22,0.60
2015,02,21,09,23,0.60
2015,02,21,09,24,0.60
2015,02,21,09,25,0.60
2015,02,21,09,26,0.70
2015,02,21,09,27,0.70
2015,02,21,09,28,0.70
2015,02,21,09,29,0.80
2015,02,21,09,30,0.80
2015,02,21,09,31,0.80
2015,02,21,09,32,0.80
2015,02,21,09,33,0.80
2015,02,21,09,34,0.80
2015,02,21,09,35,0.80
2015,02,21,09,36,0.80
2015,02,21,09,37,0.80
2015,02,21,09,38,0.80
2015,02,21,09,39,0.80
2015,02,21,09,40,0.80
2015,02,21,09,41,0.90
2015,02,21,09,42,0.90
2015,02,21,09,43,1.00
2015,02,21,09,44,1.10
2015,02,21,09,45,1.10
2015,02,21,09,46,1.10
2015,02,21,09,47,1.10
2015,02,21,09,48,1.10
2015,02,21,09,49,1.10
2015,02,21,09,50,1.10
2015,02,21,09,51,1.10
2015,02,21,09,52,1.10
2015,02,21,09,53,1.20
2015,02,21,09,54,1.30
2015,02,21,09,55,1.30
2015,02,21,09,56,1.30
2015,02,21,09,57,1.30
2015,02,21,09,58,1.30
2015,02,21,09,59,1.30
2015,02,21,10,00,1.30
2015,02,21,10,01,1.30
2015,02,21,10,02,1.30
2015,02,21,10,03,1.30
2015,02,21,10,04,1.30
2015,02,21,10,05,1.30
2015,02,21,10,06,1.30
2015,02,21,10,07,1.30
2015,02,21,10,08,1.30
2015,02,21,10,09,1.40
2015,02,21,10,10,1.40
2015,02,21,10,11,1.50
2015,02,21,10,12,1.60
2015,02,21,10,13,1.70
2015,02,21,10,14,1.80
2015,02,21,10,15,1.90
2015,02,21,10,16,1.90
2015,02,21,10,17,2.00
2015,02,21,10,18,2.00
2015,02,21,10,19,2.00
2015,02,21,10,20,2.10
2015,02,21,10,21,2.10
2015,02,21,10,22,2.10
2015,02,21,10,23,2.20
2015,02,21,10,24,2.20
2015,02,21,10,25,2.20
2015,02,21,10,26,2.30
2015,02,21,10,27,2.30
2015,02,21,10,28,2.40
2015,02,21,10,29,2.50
2015,02,21,10,30,2.50
2015,02,21,10,31,2.60
2015,02,21,10,32,2.60
2015,02,21,10,33,2.60
2015,02,21,10,34,2.70
2015,02,21,10,35,2.70
2015,02,21,10,36,2.80
2015,02,21,10,37,2.80
2015,02,21,10,38,2.80
2015,02,21,10,39,2.90
2015,02,21,10,40,2.90
2015,02,21,10,41,3.00
2015,02,21,10,42,3.10
2015,02,21,10,43,3.20
2015,02,21,10,44,3.30
2015,02,21,10,45,3.40
2015,02,21,10,46,3.50
2015,02,21,10,47,3.60
2015,02,21,10,48,3.70
2015,02,21,10,49,3.80
2015,02,21,10,50,3.90
2015,02,21,10,51,4.00
2015,02,21,10,52,4.10
2015,02,21,10,53,4.20
2015,02,21,10,54,4.30
2015,02,21,10,55,4.40
2015,02,21,10,56,4.50
2015,02,21,10,57,4.60
2015,02,21,10,58,4.70
2015,02,21,10,59,4.80
2015,02,21,11,00,4.80
2015,02,21,11,01,4.90
2015,02,21,11,02,4.90
2015,02,21,11,03,5.00
2015,02,21,11,04,5.00
2015,02,21,11,05,5.10
2015,02,21,11,06,5.20
2015,02,21,11,07,5.30
2015,02,21,11,08,5.40
2015,02,21,11,09,5.50
2015,02,21,11,10,5.60
2015,02,21,11,11,5.80
2015,02,21,11,12,5.90
2015,02,21,11,13,6.10
2015,02,21,11,14,6.20
2015,02,21,11,15,6.30
2015,02,21,11,16,6.50
2015,02,21,11,17,6.60
2015,02,21,11,18,6.70
2015,02,21,11,19,6.70
2015,02,21,11,20,6.80
2015,02,21,11,21,6.90
2015,02,21,11,22,7.00
2015,02,21,11,23,7.10
2015,02,21,11,24,7.20
2015,02,21,11,25,7.30
2015,02,21,11,26,7.40
2015,02,21,11,27,7.50
2015,02,21,11,28,7.60
2015,02,21,11,29,7.70
2015,02,21,11,30,7.80
2015,02,21,11,31,7.80
2015,02,21,11,32,7.80
2015,02,21,11,33,7.90
2015,02,21,11,34,7.90
2015,02,21,11,35,8.00
2015,02,21,11,36,8.00
2015,02,21,11,37,8.10
2015,02,21,11,38,8.10
2015,02,21,11,39,8.20
2015,02,21,11,40,8.20
2015,02,21,11,41,8.30
2015,02,21,11,42,8.40
2015,02,21,11,43,8.40
2015,02,21,11,44,8.50
2015,02,21,11,45,8.60
2015,02,21,11,46,8.70
2015,02,21,11,47,8.80
2015,02,21,11,48,8.80
2015,02,21,11,49,8.90
2015,02,21,11,50,9.00
2015,02,21,11,51,9.10
2015,02,21,11,52,9.20
2015,02,21,11,53,9.30
2015,02,21,11,54,9.40
2015,02,21,11,55,9.50
2015,02,21,11,56,9.60
2015,02,21,11,57,9.70
2015,02,21,11,58,9.80
2015,02,21,11,59,9.90
2015,02,21,12,00,10.00
2015,02,21,12,01,10.10
2015,02,21,12,02,10.20
2015,02,21,12,03,10.20
2015,02,21,12,04,10.30
2015,02,21,12,05,10.30
2015,02,21,12,06,10.40
2015,02,21,12,07,10.40
2015,02,21,12,08,10.50
2015,02,21,12,09,10.50
2015,02,21,12,10,10.60
2015,02,21,12,11,10.70
2015,02,21,12,12,10.70
2015,02,21,12,13,10.80
2015,02,21,12,14,10.90
2015,02,21,12,15,10.90
2015,02,21,12,16,11.00
2015,02,21,12,17,11.00
2015,02,21,12,18,11.10
2015,02,21,12,19,11.20
2015,02,21,12,20,11.20
2015,02,21,12,21,11.20
2015,02,21,12,22,11.20
2015,02,21,12,23,11.20
2015,02,21,12,24,11.20
2015,02,21,12,25,11.20
2015,02,21,12,26,11.20
2015,02,21,12,27,11.20
2015,02,21,12,28,11.20
2015,02,21,12,29,11.20
2015,02,21,12,30,11.20
2015,02,21,12,31,11.20
2015,02,21,12,32,11.30
2015,02,21,12,33,11.30
2015,02,21,12,34,11.30
2015,02,21,12,35,11.30
2015,02,21,12,36,11.30
2015,02,21,12,37,11.30
2015,02,21,12,38,11.30
2015,02,21,12,39,11.30
2015,02,21,12,40,11.40
2015,02,21,12,41,11.40
2015,02,21,12,42,11.50
2015,02,21,12,43,11.50
2015,02,21,12,44,11.50
2015,02,21,12,45,11.50
2015,02,21,12,46,11.40
2015,02,21,12,47,11.30
2015,02,21,12,48,11.20
2015,02,21,12,49,11.00
2015,02,21,12,50,10.90
2015,02,21,12,51,10.80
2015,02,21,12,52,10.60
2015,02,21,12,53,10.50
2015,02,21,12,54,10.50
2015,02,21,12,55,10.40
2015,02,21,12,56,10.40
2015,02,21,12,57,10.30
2015,02,21,12,58,10.30
2015,02,21,12,59,10.30
2015,02,21,13,00,10.30
2015,02,21,13,01,10.30
2015,02,21,13,02,10.30
2015,02,21,13,03,10.40
2015,02,21,13,04,10.40
2015,02,21,13,05,10.40
2015,02,21,13,06,10.40
2015,02,21,13,07,10.30
2015,02,21,13,08,10.30
2015,02,21,13,09,10.30
2015,02,21,13,10,10.40
2015,02,21,13,11,10.40
2015,02,21,13,12,10.40
2015,02,21,13,13,10.40
2015,02,21,13,14,10.50
2015,02,21,13,15,10.50
2015,02,21,13,16,10.60
2015,02,21,13,17,10.60
2015,02,21,13,18,10.70
2015,02,21,13,19,10.80
2015,02,21,13,20,10.80
2015,02,21,13,21,10.90
2015,02,21,13,22,11.00
2015,02,21,13,23,11.00
2015,02,21,13,24,11.10
2015,02,21,13,25,11.10
2015,02,21,13,26,11.20
2015,02,21,13,27,11.20
2015,02,21,13,28,11.20
2015,02,21,13,29,11.20
2015,02,21,13,30,11.20
2015,02,21,13,31,11.20
2015,02,21,13,32,11.30
2015,02,21,13,33,11.30
2015,02,21,13,34,11.40
2015,02,21,13,35,11.40
2015,02,21,13,36,11.40
2015,02,21,13,37,11.40
2015,02,21,13,38,11.50
2015,02,21,13,39,11.60
2015,02,21,13,40,11.70
2015,02,21,13,41,11.70
2015,02,21,13,42,11.80
2015,02,21,13,43,11.90
2015,02,21,13,44,11.90
2015,02,21,13,45,12.00
2015,02,21,13,46,12.00
2015,02,21,13,47,12.00
2015,02,21,13,48,12.00
2015,02,21,13,49,12.00
2015,02,21,13,50,12.00
2015,02,21,13,51,12.00
2015,02,21,13,52,12.10
2015,02,21,13,53,12.10
2015,02,21,13,54,12.20
2015,02,21,13,55,12.20
2015,02,21,13,56,12.30
2015,02,21,13,57,12.30
2015,02,21,13,58,12.30
2015,02,21,13,59,12.40
2015,02,21,14,00,12.40
2015,02,21,14,01,12.40
2015,02,21,14,02,12.30
2015,02,21,14,03,12.30
2015,02,21,14,04,12.30
2015,02,21,14,05,12.40
2015,02,21,14,06,12.40
2015,02,21,14,07,12.50
2015,02,21,14,08,12.50
2015,02,21,14,09,12.60
2015,02,21,14,10,12.60
2015,02,21,14,11,12.70
2015,02,21,14,12,12.70
2015,02,21,14,13,12.80
2015,02,21,14,14,12.80
2015,02,21,14,15,12.80
2015,02,21,14,16,12.80
2015,02,21,14,17,12.90
2015,02,21,14,18,12.90
2015,02,21,14,19,12.90
2015,02,21,14,20,13.00
2015,02,21,14,21,13.10
2015,02,21,14,22,13.10
2015,02,21,14,23,13.20
2015,02,21,14,24,13.20
2015,02,21,14,25,13.20
2015,02,21,14,26,13.30
2015,02,21,14,27,13.30
2015,02,21,14,28,13.30
2015,02,21,14,29,13.30
2015,02,21,14,30,13.40
2015,02,21,14,31,13.40
2015,02,21,14,32,13.50
2015,02,21,14,33,13.50
2015,02,21,14,34,13.50
2015,02,21,14,35,13.60
2015,02,21,14,36,13.60
2015,02,21,14,37,13.70
2015,02,21,14,38,13.70
2015,02,21,14,39,13.80
2015,02,21,14,40,13.80
2015,02,21,14,41,13.80
2015,02,21,14,42,13.90
2015,02,21,14,43,13.90
2015,02,21,14,44,14.00
2015,02,21,14,45,14.00
2015,02,21,14,46,14.10
2015,02,21,14,47,14.10
2015,02,21,14,48,14.20
2015,02,21,14,49,14.20
2015,02,21,14,50,14.20
2015,02,21,14,51,14.30
2015,02,21,14,52,14.30
2015,02,21,14,53,14.30
2015,02,21,14,54,14.30
2015,02,21,14,55,14.30
2015,02,21,14,56,14.30
2015,02,21,14,57,14.30
2015,02,21,14,58,14.30
2015,02,21,14,59,14.30
2015,02,21,15,00,14.30
2015,02,21,15,01,14.30
2015,02,21,15,02,14.20
2015,02,21,15,03,14.20
2015,02,21,15,04,14.20
2015,02,21,15,05,14.20
2015,02,21,15,06,14.20
2015,02,21,15,07,14.20
2015,02,21,15,08,14.20
2015,02,21,15,09,14.20
2015,02,21,15,10,14.20
2015,02,21,15,11,14.20
2015,02,21,15,12,14.30
2015,02,21,15,13,14.30
2015,02,21,15,14,14.30
2015,02,21,15,15,14.30
2015,02,21,15,16,14.30
2015,02,21,15,17,14.30
2015,02,21,15,18,14.30
2015,02,21,15,19,14.30
2015,02,21,15,20,14.30
2015,02,21,15,21,14.20
2015,02,21,15,22,14.10
2015,02,21,15,23,14.00
2015,02,21,15,24,13.90
2015,02,21,15,25,13.70
2015,02,21,15,26,13.50
2015,02,21,15,27,13.40
2015,02,21,15,28,13.20
2015,02,21,15,29,13.10
2015,02,21,15,30,13.00
2015,02,21,15,31,13.00
2015,02,21,15,32,13.00
2015,02,21,15,33,13.00
2015,02,21,15,34,13.00
2015,02,21,15,35,13.10
2015,02,21,15,36,13.10
2015,02,21,15,37,13.10
2015,02,21,15,38,13.10
2015,02,21,15,39,13.10
2015,02,21,15,40,13.00
2015,02,21,15,41,13.00
2015,02,21,15,42,12.90
2015,02,21,15,43,12.90
2015,02,21,15,44,12.80
2015,02,21,15,45,12.80
2015,02,21,15,46,12.70
2015,02,21,15,47,12.70
2015,02,21,15,48,12.70
2015,02,21,15,49,12.70
2015,02,21,15,50,12.70
2015,02,21,15,51,12.70
2015,02,21,15,52,12.70
2015,02,21,15,53,12.70
2015,02,21,15,54,12.70
2015,02,21,15,55,12.70
2015,02,21,15,56,12.70
2015,02,21,15,57,12.70
2015,02,21,15,58,12.70
2015,02,21,15,59,12.70
2015,02,21,16,00,12.70
2015,02,21,16,01,12.70
2015,02,21,16,02,12.70
2015,02,21,16,03,12.70
2015,02,21,16,04,12.70
2015,02,21,16,05,12.70
2015,02,21,16,06,12.80
2015,02,21,16,07,12.80
2015,02,21,16,08,12.70
2015,02,21,16,09,12.70
2015,02,21,16,10,12.70
2015,02,21,16,11,12.70
2015,02,21,16,12,12.70
2015,02,21,16,13,12.70
2015,02,21,16,14,12.70
2015,02,21,16,15,12.70
2015,02,21,16,16,12.70
2015,02,21,16,17,12.70
2015,02,21,16,18,12.80
2015,02,21,16,19,12.80
2015,02,21,16,20,12.80
2015,02,21,16,21,12.80
2015,02,21,16,22,12.80
2015,02,21,16,23,12.90
2015,02,21,16,24,12.90
2015,02,21,16,25,12.80
2015,02,21,16,26,12.80
2015,02,21,16,27,12.80
2015,02,21,16,28,12.70
2015,02,21,16,29,12.70
2015,02,21,16,30,12.60
2015,02,21,16,31,12.60
2015,02,21,16,32,12.50
2015,02,21,16,33,12.40
2015,02,21,16,34,12.40
2015,02,21,16,35,12.30
2015,02,21,16,36,12.20
2015,02,21,16,37,12.10
2015,02,21,16,38,12.00
2015,02,21,16,39,11.90
2015,02,21,16,40,11.70
2015,02,21,16,41,11.60
2015,02,21,16,42,11.50
2015,02,21,16,43,11.30
2015,02,21,16,44,11.20
2015,02,21,16,45,11.10
2015,02,21,16,46,10.90
2015,02,21,16,47,10.80
2015,02,21,16,48,10.70
2015,02,21,16,49,10.60
2015,02,21,16,50,10.40
2015,02,21,16,51,10.30
2015,02,21,16,52,10.20
2015,02,21,16,53,10.10
2015,02,21,16,54,9.90
2015,02,21,16,55,9.80
2015,02,21,16,56,9.70
2015,02,21,16,57,9.60
2015,02,21,16,58,9.50
2015,02,21,16,59,9.40
2015,02,21,17,00,9.30
2015,02,21,17,01,9.20
2015,02,21,17,02,9.20
2015,02,21,17,03,9.10
2015,02,21,17,04,9.00
2015,02,21,17,05,8.90
2015,02,21,17,06,8.80
2015,02,21,17,07,8.80
2015,02,21,17,08,8.70
2015,02,21,17,09,8.60
2015,02,21,17,10,8.50
2015,02,21,17,11,8.50
2015,02,21,17,12,8.40
2015,02,21,17,13,8.30
2015,02,21,17,14,8.20
2015,02,21,17,15,8.20
2015,02,21,17,16,8.10
2015,02,21,17,17,8.10
2015,02,21,17,18,8.00
2015,02,21,17,19,8.00
2015,02,21,17,20,7.90
2015,02,21,17,21,7.90
2015,02,21,17,22,7.80
2015,02,21,17,23,7.80
2015,02,21,17,24,7.80
2015,02,21,17,25,7.70
2015,02,21,17,26,7.70
2015,02,21,17,27,7.60
2015,02,21,17,28,7.60
2015,02,21,17,29,7.50
2015,02,21,17,30,7.50
2015,02,21,17,31,7.40
2015,02,21,17,32,7.40
2015,02,21,17,33,7.40
2015,02,21,17,34,7.40
2015,02,21,17,35,7.40
2015,02,21,17,36,7.30
2015,02,21,17,37,7.30
2015,02,21,17,38,7.30
2015,02,21,17,39,7.30
2015,02,21,17,40,7.20
2015,02,21,17,41,7.20
2015,02,21,17,42,7.20
2015,02,21,17,43,7.10
2015,02,21,17,44,7.10
2015,02,21,17,45,7.00
2015,02,21,17,46,7.00
2015,02,21,17,47,7.00
2015,02,21,17,48,6.90
2015,02,21,17,49,6.90
2015,02,21,17,50,6.80
2015,02,21,17,51,6.80
2015,02,21,17,52,6.80
2015,02,21,17,53,6.70